Notices

Please take our survey and provide feedback: https://eccc.sondage-survey.ca/f/LanguageSelection.aspx?s=442ca660-fcf1-47c0-95a9-59707d6fd709

Please note that for the Engineering Climate Datasets, IDF dataset is available through this link.  Intensity-Duration-Frequency (IDF) Files: Includes the latest version of short-duration rainfall Intensity-Duration-Frequency (IDF) statistics in the form of tables and graphs with accompanying documentation for various locations across Canada.  Current IDF files can be accessed through our station finder application or downloaded for each province and territory across Canada.  In addition, historical versions of IDF files are also available for download.  Updates of IDF files are provided approximately every two years depending on the availability of data.   Thank you for your patience as we enhance our systems.

Hourly Data Report for October 05, 2018

CORAL HARBOUR A
NUNAVUT
Current Station Operator: NAVCAN

64°11'36.000" N
83°21'34.000" W
62.20 m
2301002
71915
YZS

Download Data

Hourly Data (October 2018)
Hourly Data Report for October 5, 2018
TIME
LST
Temp Definition
°C
Dew Point Definition
°C
Rel Hum Definition
%
Precip. Amount Definition
mm

Wind Dir Definition
10's deg

Wind Spd Definition
km/h
Visibility Definition
km
Stn Press Definition
kPa
Hmdx Definition


Wind Chill Definition


Weather Definition


00:00 -0.7 -1.9 92   3 58 9.7 98.30   -10 Snow,Blowing Snow
01:00 -0.7 -1.8 93   3 53 9.7 98.33   -9 Snow,Blowing Snow
02:00 -0.7 -1.7 93   3 47 9.7 98.35   -9 Snow,Blowing Snow
03:00 -0.8 -1.9 92   3 50 8.1 98.39   -9 Snow,Blowing Snow
04:00
05:00 -0.8 -2.0 92   3 52 8.1 98.53   -9 Snow,Blowing Snow
06:00 -1.0 -2.0 93   3 55 6.4 98.61   -10 Snow,Blowing Snow
07:00 -0.9 -2.1 92   3 46 4.8 98.70   -9 Snow,Blowing Snow
08:00 -0.8 -2.2 90   2 45 9.7 98.78   -9 Snow,Blowing Snow
09:00 -0.8 -2.6 88   2 41 24.1 98.87   -9 Snow,Blowing Snow
10:00 -1.0 -3.0 87   2 44 24.1 98.90   -9 Snow,Blowing Snow
11:00 -0.9 -3.2 85   2 40 24.1 98.96   -9 Snow,Blowing Snow
12:00 -0.9 -3.3 84   36 33 24.1 99.07   -8 Snow,Blowing Snow
13:00 -0.6 -3.2 82   1 41 24.1 99.10   -8 Snow,Blowing Snow
14:00 -0.8 -3.1 85   1 45 19.3 99.17   -9 Snow,Blowing Snow
15:00 -0.9 -3.2 84   2 35 19.3 99.28   -8 Snow,Blowing Snow
16:00 -1.1 -3.4 84   2 33 24.1 99.38   -8 Snow,Blowing Snow
17:00 -1.3 -3.7 84   2 46 24.1 99.43   -10 Snow,Blowing Snow
18:00 -1.3 -3.6 84   2 35 24.1 99.59   -9 Snow,Blowing Snow
19:00 -1.3 -3.9 82   1 34 24.1 99.66   -9 Snow,Blowing Snow
20:00 -1.8 -4.4 83   1 29 19.3 99.71   -9 Snow,Blowing Snow
21:00 -2.4 -5.2 81   36 19 19.3 99.84   -8 Snow,Blowing Snow
22:00 -2.2 -5.1 81   2 25 24.1 99.85   -9 Blowing Snow
23:00 -2.7 -5.3 82   33 19 24.1 99.94   -8 LegendNANA

Notes on Data Quality.

Legend

  • E = Estimated
  • M = Missing
  • NA = Not Available*
  • [empty] = Indicates an unobserved value
Date modified: